Time,TemperatureF,DewpointF,PressureIn,WindDirection,WindDirectionDegrees,WindSpeedMPH,WindSpeedGustMPH,Humidity,HourlyPrecipIn,Conditions,Clouds,dailyrainin,SoftwareType,DateUTC
2013-07-26 00:03:00,73.4,50.7,29.89,South,180,0.0,6.3,45,0.00,,,0.00,WUHU21623XXSP,2013-07-26 07:03:00,
2013-07-26 00:08:00,73.4,50.7,29.89,SW,225,0.0,5.0,45,0.00,,,0.00,WUHU21623XXSP,2013-07-26 07:08:00,
2013-07-26 00:13:00,73.4,50.7,29.89,South,180,0.0,4.5,45,0.00,,,0.00,WUHU21623XXSP,2013-07-26 07:13:00,
2013-07-26 00:18:00,72.9,50.9,29.89,SSW,202,0.0,2.3,46,0.00,,,0.00,WUHU21623XXSP,2013-07-26 07:18:00,
2013-07-26 00:23:00,72.7,50.7,29.89,South,180,0.0,0.0,46,0.00,,,0.00,WUHU21623XXSP,2013-07-26 07:23:00,
2013-07-26 00:29:00,72.2,50.3,29.89,SW,225,0.0,6.8,46,0.00,,,0.00,WUHU21623XXSP,2013-07-26 07:29:00,
2013-07-26 00:34:00,71.8,50.5,29.89,South,180,0.0,6.8,47,0.00,,,0.00,WUHU21623XXSP,2013-07-26 07:34:00,
2013-07-26 00:40:00,71.6,50.3,29.89,South,180,0.0,2.8,47,0.00,,,0.00,WUHU21623XXSP,2013-07-26 07:40:00,
2013-07-26 00:45:00,71.1,49.9,29.89,South,180,0.0,5.0,47,0.00,,,0.00,WUHU21623XXSP,2013-07-26 07:45:00,
2013-07-26 00:50:00,70.9,50.3,29.89,South,180,0.0,5.0,48,0.00,,,0.00,WUHU21623XXSP,2013-07-26 07:50:00,
2013-07-26 00:55:00,70.9,50.3,29.89,South,180,0.0,0.0,48,0.00,,,0.00,WUHU21623XXSP,2013-07-26 07:55:00,
2013-07-26 01:00:00,70.9,50.3,29.89,South,180,0.0,0.0,48,0.00,,,0.00,WUHU21623XXSP,2013-07-26 08:00:00,
2013-07-26 01:05:00,70.9,50.8,29.89,SSE,157,0.0,0.0,49,0.00,,,0.00,WUHU21623XXSP,2013-07-26 08:05:00,
2013-07-26 01:10:00,70.9,50.3,29.89,South,180,0.0,0.0,48,0.00,,,0.00,WUHU21623XXSP,2013-07-26 08:10:00,
2013-07-26 01:15:00,70.6,50.6,29.89,South,180,0.0,2.8,49,0.00,,,0.00,WUHU21623XXSP,2013-07-26 08:15:00,
2013-07-26 01:20:00,70.4,50.4,29.89,South,180,0.0,2.8,49,0.00,,,0.00,WUHU21623XXSP,2013-07-26 08:20:00,
2013-07-26 01:25:00,70.4,50.9,29.89,South,180,0.0,0.0,50,0.00,,,0.00,WUHU21623XXSP,2013-07-26 08:25:00,
2013-07-26 01:30:00,70.0,50.6,29.89,SSE,157,0.0,0.0,50,0.00,,,0.00,WUHU21623XXSP,2013-07-26 08:30:00,
2013-07-26 01:35:00,70.0,50.6,29.89,South,180,0.0,0.0,50,0.00,,,0.00,WUHU21623XXSP,2013-07-26 08:35:00,
2013-07-26 01:40:00,70.0,50.6,29.89,SSE,157,0.0,0.0,50,0.00,,,0.00,WUHU21623XXSP,2013-07-26 08:40:00,
2013-07-26 01:45:00,69.8,50.9,29.90,South,180,0.0,0.0,51,0.00,,,0.00,WUHU21623XXSP,2013-07-26 08:45:00,
2013-07-26 01:50:00,69.8,50.4,29.90,South,180,0.0,0.0,50,0.00,,,0.00,WUHU21623XXSP,2013-07-26 08:50:00,
2013-07-26 01:55:00,69.5,50.6,29.90,South,180,0.0,0.0,51,0.00,,,0.00,WUHU21623XXSP,2013-07-26 08:55:00,
2013-07-26 02:00:00,69.3,50.5,29.90,SSW,202,0.0,0.0,51,0.00,,,0.00,WUHU21623XXSP,2013-07-26 09:00:00,
2013-07-26 02:06:00,69.1,50.3,29.90,South,180,0.0,0.0,51,0.00,,,0.00,WUHU21623XXSP,2013-07-26 09:06:00,
2013-07-26 02:11:00,68.9,50.1,29.89,South,180,0.0,0.0,51,0.00,,,0.00,WUHU21623XXSP,2013-07-26 09:11:00,
2013-07-26 02:16:00,68.8,50.5,29.89,South,180,0.0,0.0,52,0.00,,,0.00,WUHU21623XXSP,2013-07-26 09:16:00,
2013-07-26 02:21:00,68.6,50.4,29.89,South,180,0.0,0.0,52,0.00,,,0.00,WUHU21623XXSP,2013-07-26 09:21:00,
2013-07-26 02:27:00,68.4,50.7,29.89,SSW,202,0.0,0.0,53,0.00,,,0.00,WUHU21623XXSP,2013-07-26 09:27:00,
2013-07-26 02:32:00,68.4,50.7,29.89,South,180,0.0,0.0,53,0.00,,,0.00,WUHU21623XXSP,2013-07-26 09:32:00,
2013-07-26 02:39:00,68.6,50.9,29.89,South,180,0.0,0.0,53,0.00,,,0.00,WUHU21623XXSP,2013-07-26 09:39:00,
2013-07-26 02:44:00,68.4,50.7,29.89,South,180,0.0,0.0,53,0.00,,,0.00,WUHU21623XXSP,2013-07-26 09:44:00,
2013-07-26 02:49:00,68.2,50.5,29.90,South,180,0.0,5.0,53,0.00,,,0.00,WUHU21623XXSP,2013-07-26 09:49:00,
2013-07-26 02:54:00,68.0,50.3,29.90,South,180,0.0,5.5,53,0.00,,,0.00,WUHU21623XXSP,2013-07-26 09:54:00,
2013-07-26 02:59:00,68.0,50.3,29.90,South,180,0.0,5.5,53,0.00,,,0.00,WUHU21623XXSP,2013-07-26 09:59:00,
2013-07-26 03:04:00,67.3,50.2,29.90,SSE,157,0.0,0.0,54,0.00,,,0.00,WUHU21623XXSP,2013-07-26 10:04:00,
2013-07-26 03:09:00,67.1,50.0,29.90,South,180,0.0,6.3,54,0.00,,,0.00,WUHU21623XXSP,2013-07-26 10:09:00,
2013-07-26 03:14:00,67.3,50.2,29.90,South,180,0.0,6.3,54,0.00,,,0.00,WUHU21623XXSP,2013-07-26 10:14:00,
2013-07-26 03:19:00,67.1,50.5,29.90,SSE,157,0.0,5.0,55,0.00,,,0.00,WUHU21623XXSP,2013-07-26 10:19:00,
2013-07-26 03:24:00,66.8,50.2,29.89,South,180,0.0,5.0,55,0.00,,,0.00,WUHU21623XXSP,2013-07-26 10:24:00,
2013-07-26 03:29:00,66.8,50.2,29.90,South,180,0.0,6.3,55,0.00,,,0.00,WUHU21623XXSP,2013-07-26 10:29:00,
2013-07-26 03:34:00,66.4,49.9,29.90,South,180,0.0,6.3,55,0.00,,,0.00,WUHU21623XXSP,2013-07-26 10:34:00,
2013-07-26 03:39:00,66.4,50.3,29.90,South,180,1.8,1.8,56,0.00,,,0.00,WUHU21623XXSP,2013-07-26 10:39:00,
2013-07-26 03:45:00,66.4,50.3,29.91,South,180,0.0,1.8,56,0.00,,,0.00,WUHU21623XXSP,2013-07-26 10:45:00,
2013-07-26 03:50:00,66.2,50.2,29.91,South,180,0.0,0.0,56,0.00,,,0.00,WUHU21623XXSP,2013-07-26 10:50:00,
2013-07-26 03:55:00,66.2,50.2,29.90,SSW,202,0.0,0.0,56,0.00,,,0.00,WUHU21623XXSP,2013-07-26 10:55:00,
2013-07-26 04:00:00,66.2,50.2,29.91,South,180,0.0,4.0,56,0.00,,,0.00,WUHU21623XXSP,2013-07-26 11:00:00,
2013-07-26 04:05:00,66.1,50.1,29.91,South,180,0.0,4.0,56,0.00,,,0.00,WUHU21623XXSP,2013-07-26 11:05:00,
2013-07-26 04:11:00,65.9,49.9,29.90,SSW,202,3.3,4.0,56,0.00,,,0.00,WUHU21623XXSP,2013-07-26 11:11:00,
2013-07-26 04:16:00,65.5,50.0,29.90,South,180,0.0,5.0,57,0.00,,,0.00,WUHU21623XXSP,2013-07-26 11:16:00,
2013-07-26 04:21:00,65.3,50.3,29.90,South,180,5.5,5.5,58,0.00,,,0.00,WUHU21623XXSP,2013-07-26 11:21:00,
2013-07-26 04:26:00,65.3,50.3,29.91,South,180,0.0,5.5,58,0.00,,,0.00,WUHU21623XXSP,2013-07-26 11:26:00,
2013-07-26 04:31:00,65.0,50.5,29.90,SSE,157,0.0,6.3,59,0.00,,,0.00,WUHU21623XXSP,2013-07-26 11:31:00,
2013-07-26 04:36:00,65.0,50.5,29.90,South,180,0.0,6.3,59,0.00,,,0.00,WUHU21623XXSP,2013-07-26 11:36:00,
2013-07-26 04:41:00,65.0,50.5,29.91,SSW,202,0.0,4.0,59,0.00,,,0.00,WUHU21623XXSP,2013-07-26 11:41:00,
2013-07-26 04:47:00,64.8,50.3,29.91,SSE,157,0.0,0.0,59,0.00,,,0.00,WUHU21623XXSP,2013-07-26 11:47:00,
2013-07-26 04:52:00,64.8,50.3,29.91,South,180,0.0,5.0,59,0.00,,,0.00,WUHU21623XXSP,2013-07-26 11:52:00,
2013-07-26 04:57:00,64.4,50.8,29.91,South,180,3.3,6.3,61,0.00,,,0.00,WUHU21623XXSP,2013-07-26 11:57:00,
2013-07-26 05:02:00,63.7,50.6,29.91,South,180,0.0,11.3,62,0.00,,,0.00,WUHU21623XXSP,2013-07-26 12:02:00,
2013-07-26 05:09:00,63.5,50.8,29.91,South,180,0.0,11.3,63,0.00,,,0.00,WUHU21623XXSP,2013-07-26 12:09:00,
2013-07-26 05:14:00,63.5,50.8,29.91,SSE,157,0.0,5.0,63,0.00,,,0.00,WUHU21623XXSP,2013-07-26 12:14:00,
2013-07-26 05:19:00,63.2,50.6,29.91,South,180,0.0,5.5,63,0.00,,,0.00,WUHU21623XXSP,2013-07-26 12:19:00,
2013-07-26 05:24:00,63.2,50.6,29.92,SSW,202,0.0,5.5,63,0.00,,,0.00,WUHU21623XXSP,2013-07-26 12:24:00,
2013-07-26 05:29:00,63.5,50.8,29.91,South,180,0.0,6.3,63,0.00,,,0.00,WUHU21623XXSP,2013-07-26 12:29:00,
2013-07-26 05:34:00,63.5,50.8,29.92,SSW,202,0.0,6.3,63,0.00,,,0.00,WUHU21623XXSP,2013-07-26 12:34:00,
2013-07-26 05:39:00,63.4,50.7,29.92,South,180,0.0,3.3,63,0.00,,,0.00,WUHU21623XXSP,2013-07-26 12:39:00,
2013-07-26 05:44:00,63.4,50.7,29.92,South,180,0.0,5.0,63,0.00,,,0.00,WUHU21623XXSP,2013-07-26 12:44:00,
2013-07-26 05:49:00,63.5,50.8,29.92,South,180,0.0,6.3,63,0.00,,,0.00,WUHU21623XXSP,2013-07-26 12:49:00,
2013-07-26 05:54:00,63.7,50.6,29.92,South,180,0.0,6.3,62,0.00,,,0.00,WUHU21623XXSP,2013-07-26 12:54:00,
2013-07-26 05:59:00,63.7,50.6,29.92,South,180,0.0,0.0,62,0.00,,,0.00,WUHU21623XXSP,2013-07-26 12:59:00,
2013-07-26 06:04:00,63.7,50.6,29.93,SE,135,0.0,0.0,62,0.00,,,0.00,WUHU21623XXSP,2013-07-26 13:04:00,
2013-07-26 06:09:00,63.5,50.4,29.93,South,180,0.0,0.0,62,0.00,,,0.00,WUHU21623XXSP,2013-07-26 13:09:00,
2013-07-26 06:14:00,63.7,51.0,29.93,South,180,0.0,0.0,63,0.00,,,0.00,WUHU21623XXSP,2013-07-26 13:14:00,
2013-07-26 06:19:00,63.9,50.8,29.93,South,180,0.0,0.0,62,0.00,,,0.00,WUHU21623XXSP,2013-07-26 13:19:00,
2013-07-26 06:24:00,64.3,50.7,29.93,South,180,0.0,0.0,61,0.00,,,0.00,WUHU21623XXSP,2013-07-26 13:24:00,
2013-07-26 06:29:00,64.3,50.7,29.94,SSW,202,0.0,0.0,61,0.00,,,0.00,WUHU21623XXSP,2013-07-26 13:29:00,
2013-07-26 06:34:00,64.3,50.7,29.94,SSW,202,0.0,0.0,61,0.00,,,0.00,WUHU21623XXSP,2013-07-26 13:34:00,
2013-07-26 06:39:00,64.3,50.7,29.94,SSW,202,0.0,0.0,61,0.00,,,0.00,WUHU21623XXSP,2013-07-26 13:39:00,
2013-07-26 06:44:00,64.3,51.2,29.95,SSW,202,0.0,0.0,62,0.00,,,0.00,WUHU21623XXSP,2013-07-26 13:44:00,
2013-07-26 06:49:00,64.4,50.8,29.94,SSW,202,0.0,0.0,61,0.00,,,0.00,WUHU21623XXSP,2013-07-26 13:49:00,
2013-07-26 06:54:00,64.4,50.4,29.95,SSW,202,0.0,0.0,60,0.00,,,0.00,WUHU21623XXSP,2013-07-26 13:54:00,
2013-07-26 06:59:00,64.4,50.8,29.95,SSW,202,0.0,0.0,61,0.00,,,0.00,WUHU21623XXSP,2013-07-26 13:59:00,
2013-07-26 07:04:00,64.4,51.3,29.95,SSW,202,0.0,0.0,62,0.00,,,0.00,WUHU21623XXSP,2013-07-26 14:04:00,
2013-07-26 07:09:00,64.6,51.0,29.95,SSW,202,0.0,0.0,61,0.00,,,0.00,WUHU21623XXSP,2013-07-26 14:09:00,
2013-07-26 07:14:00,64.8,51.6,29.95,SSW,202,0.0,0.0,62,0.00,,,0.00,WUHU21623XXSP,2013-07-26 14:14:00,
2013-07-26 07:19:00,65.0,51.4,29.96,SSW,202,0.0,0.0,61,0.00,,,0.00,WUHU21623XXSP,2013-07-26 14:19:00,
2013-07-26 07:24:00,65.2,51.6,29.95,SW,225,0.0,0.0,61,0.00,,,0.00,WUHU21623XXSP,2013-07-26 14:24:00,
2013-07-26 07:29:00,65.3,51.7,29.96,South,180,0.0,0.0,61,0.00,,,0.00,WUHU21623XXSP,2013-07-26 14:29:00,
2013-07-26 07:34:00,65.3,51.2,29.96,SSE,157,0.0,0.0,60,0.00,,,0.00,WUHU21623XXSP,2013-07-26 14:34:00,
2013-07-26 07:39:00,65.9,51.8,29.96,South,180,3.3,3.3,60,0.00,,,0.00,WUHU21623XXSP,2013-07-26 14:39:00,
2013-07-26 07:44:00,65.9,51.8,29.97,SSE,157,0.0,3.3,60,0.00,,,0.00,WUHU21623XXSP,2013-07-26 14:44:00,
2013-07-26 07:49:00,66.2,51.6,29.97,SW,225,0.0,3.3,59,0.00,,,0.00,WUHU21623XXSP,2013-07-26 14:49:00,
2013-07-26 07:56:00,66.4,51.8,29.97,South,180,3.3,6.8,59,0.00,,,0.00,WUHU21623XXSP,2013-07-26 14:56:00,
2013-07-26 08:01:00,66.2,51.6,29.97,SW,225,0.0,6.8,59,0.00,,,0.00,WUHU21623XXSP,2013-07-26 15:01:00,
2013-07-26 08:06:00,66.8,52.2,29.97,SSW,202,0.0,3.3,59,0.00,,,0.00,WUHU21623XXSP,2013-07-26 15:06:00,
2013-07-26 08:11:00,67.0,51.9,29.98,South,180,0.0,5.0,58,0.00,,,0.00,WUHU21623XXSP,2013-07-26 15:11:00,
2013-07-26 08:16:00,67.1,52.0,29.98,SE,135,0.0,5.0,58,0.00,,,0.00,WUHU21623XXSP,2013-07-26 15:16:00,
2013-07-26 08:21:00,67.3,52.2,29.97,SSE,157,0.0,4.0,58,0.00,,,0.00,WUHU21623XXSP,2013-07-26 15:21:00,
2013-07-26 08:26:00,67.7,52.1,29.98,South,180,0.0,7.3,57,0.00,,,0.00,WUHU21623XXSP,2013-07-26 15:26:00,
2013-07-26 08:31:00,67.7,52.1,29.98,South,180,0.0,7.3,57,0.00,,,0.00,WUHU21623XXSP,2013-07-26 15:31:00,
2013-07-26 08:36:00,68.2,52.5,29.98,WSW,247,0.0,3.3,57,0.00,,,0.00,WUHU21623XXSP,2013-07-26 15:36:00,
2013-07-26 08:41:00,68.0,52.3,29.98,SSW,202,0.0,5.5,57,0.00,,,0.00,WUHU21623XXSP,2013-07-26 15:41:00,
2013-07-26 08:46:00,68.2,52.5,29.98,SE,135,0.0,5.5,57,0.00,,,0.00,WUHU21623XXSP,2013-07-26 15:46:00,
2013-07-26 08:51:00,68.0,52.3,29.98,South,180,0.0,5.0,57,0.00,,,0.00,WUHU21623XXSP,2013-07-26 15:51:00,
2013-07-26 08:56:00,68.0,52.8,29.98,South,180,0.0,6.3,58,0.00,,,0.00,WUHU21623XXSP,2013-07-26 15:56:00,
2013-07-26 09:01:00,68.2,52.5,29.98,South,180,0.0,6.3,57,0.00,,,0.00,WUHU21623XXSP,2013-07-26 16:01:00,
2013-07-26 09:06:00,68.6,52.9,29.98,SSE,157,0.0,4.0,57,0.00,,,0.00,WUHU21623XXSP,2013-07-26 16:06:00,
2013-07-26 09:11:00,69.3,53.6,29.98,West,270,0.0,0.0,57,0.00,,,0.00,WUHU21623XXSP,2013-07-26 16:11:00,
2013-07-26 09:16:00,69.8,53.0,29.98,SW,225,0.0,4.0,55,0.00,,,0.00,WUHU21623XXSP,2013-07-26 16:16:00,
2013-07-26 09:21:00,70.4,53.1,29.98,South,180,3.3,7.3,54,0.00,,,0.00,WUHU21623XXSP,2013-07-26 16:21:00,
2013-07-26 09:26:00,70.9,53.5,29.98,South,180,6.8,7.3,54,0.00,,,0.00,WUHU21623XXSP,2013-07-26 16:26:00,
2013-07-26 09:31:00,71.1,53.7,29.98,South,180,0.0,8.5,54,0.00,,,0.00,WUHU21623XXSP,2013-07-26 16:31:00,
2013-07-26 09:36:00,71.3,53.4,29.98,SW,225,3.3,8.5,53,0.00,,,0.00,WUHU21623XXSP,2013-07-26 16:36:00,
2013-07-26 09:41:00,71.6,53.1,29.98,SSE,157,0.0,6.8,52,0.00,,,0.00,WUHU21623XXSP,2013-07-26 16:41:00,
2013-07-26 09:46:00,71.8,53.3,29.98,South,180,0.0,5.0,52,0.00,,,0.00,WUHU21623XXSP,2013-07-26 16:46:00,
2013-07-26 09:51:00,71.8,53.3,29.98,ESE,112,0.0,7.3,52,0.00,,,0.00,WUHU21623XXSP,2013-07-26 16:51:00,
2013-07-26 09:56:00,72.4,53.3,29.97,SSE,157,0.0,7.3,51,0.00,,,0.00,WUHU21623XXSP,2013-07-26 16:56:00,
2013-07-26 10:01:00,72.8,53.1,29.97,South,180,9.5,9.5,50,0.00,,,0.00,WUHU21623XXSP,2013-07-26 17:01:00,
2013-07-26 10:06:00,73.1,53.4,29.98,South,180,2.3,9.5,50,0.00,,,0.00,WUHU21623XXSP,2013-07-26 17:06:00,
2013-07-26 10:11:00,73.2,52.9,29.98,WSW,247,0.0,9.5,49,0.00,,,0.00,WUHU21623XXSP,2013-07-26 17:11:00,
2013-07-26 10:16:00,73.3,53.1,29.98,South,180,0.0,9.0,49,0.00,,,0.00,WUHU21623XXSP,2013-07-26 17:16:00,
2013-07-26 10:21:00,73.9,54.1,29.98,WSW,247,0.0,7.3,50,0.00,,,0.00,WUHU21623XXSP,2013-07-26 17:21:00,
2013-07-26 10:26:00,74.8,54.5,29.97,SW,225,8.5,8.5,49,0.00,,,0.00,WUHU21623XXSP,2013-07-26 17:26:00,
2013-07-26 10:31:00,75.4,54.4,29.98,SSE,157,0.0,10.0,48,0.00,,,0.00,WUHU21623XXSP,2013-07-26 17:31:00,
2013-07-26 10:36:00,75.5,53.3,29.98,South,180,5.5,10.0,46,0.00,,,0.00,WUHU21623XXSP,2013-07-26 17:36:00,
2013-07-26 10:41:00,75.3,53.1,29.98,SSW,202,7.3,8.5,46,0.00,,,0.00,WUHU21623XXSP,2013-07-26 17:41:00,
2013-07-26 10:46:00,75.6,53.3,29.97,SE,135,0.0,7.3,46,0.00,,,0.00,WUHU21623XXSP,2013-07-26 17:46:00,
2013-07-26 10:51:00,76.4,54.7,29.97,South,180,0.0,15.8,47,0.00,,,0.00,WUHU21623XXSP,2013-07-26 17:51:00,
2013-07-26 10:56:00,77.2,54.8,29.98,SE,135,0.0,15.8,46,0.00,,,0.00,WUHU21623XXSP,2013-07-26 17:56:00,
2013-07-26 11:01:00,77.6,54.0,29.98,SE,135,0.0,14.5,44,0.00,,,0.00,WUHU21623XXSP,2013-07-26 18:01:00,
2013-07-26 11:06:00,77.4,53.8,29.98,SSE,157,0.0,6.8,44,0.00,,,0.00,WUHU21623XXSP,2013-07-26 18:06:00,
2013-07-26 11:11:00,78.0,55.0,29.97,SE,135,0.0,10.0,45,0.00,,,0.00,WUHU21623XXSP,2013-07-26 18:11:00,
2013-07-26 11:16:00,78.2,53.8,29.97,SW,225,6.3,10.0,43,0.00,,,0.00,WUHU21623XXSP,2013-07-26 18:16:00,
2013-07-26 11:21:00,77.7,53.4,29.98,SSE,157,0.0,10.8,43,0.00,,,0.00,WUHU21623XXSP,2013-07-26 18:21:00,
2013-07-26 11:26:00,78.1,54.4,29.97,South,180,0.0,10.8,44,0.00,,,0.00,WUHU21623XXSP,2013-07-26 18:26:00,
2013-07-26 11:31:00,78.5,54.8,29.97,SW,225,5.0,9.0,44,0.00,,,0.00,WUHU21623XXSP,2013-07-26 18:31:00,
2013-07-26 11:36:00,79.1,54.7,29.97,South,180,4.0,12.8,43,0.00,,,0.00,WUHU21623XXSP,2013-07-26 18:36:00,
2013-07-26 11:41:00,79.8,55.3,29.97,SW,225,3.3,12.8,43,0.00,,,0.00,WUHU21623XXSP,2013-07-26 18:41:00,
2013-07-26 11:46:00,80.5,55.2,29.97,SSW,202,0.0,11.8,42,0.00,,,0.00,WUHU21623XXSP,2013-07-26 18:46:00,
2013-07-26 11:52:00,80.6,54.0,29.97,SSE,157,0.0,22.3,40,0.00,,,0.00,WUHU21623XXSP,2013-07-26 18:52:00,
2013-07-26 11:57:00,81.2,54.5,29.97,SW,225,5.0,22.3,40,0.00,,,0.00,WUHU21623XXSP,2013-07-26 18:57:00,
2013-07-26 12:02:00,81.9,56.5,29.96,South,180,6.8,15.0,42,0.00,,,0.00,WUHU21623XXSP,2013-07-26 19:02:00,
2013-07-26 12:07:00,82.0,56.0,29.96,SSE,157,0.0,15.0,41,0.00,,,0.00,WUHU21623XXSP,2013-07-26 19:07:00,
2013-07-26 12:12:00,82.1,54.6,29.96,SSW,202,0.0,11.8,39,0.00,,,0.00,WUHU21623XXSP,2013-07-26 19:12:00,
2013-07-26 12:17:00,82.1,55.3,29.96,North,0,0.0,5.5,40,0.00,,,0.00,WUHU21623XXSP,2013-07-26 19:17:00,
2013-07-26 12:22:00,83.5,56.6,29.95,SSW,202,5.5,5.5,40,0.00,,,0.00,WUHU21623XXSP,2013-07-26 19:22:00,
2013-07-26 12:27:00,84.7,57.7,29.96,NW,315,5.0,10.0,40,0.00,,,0.00,WUHU21623XXSP,2013-07-26 19:27:00,
2013-07-26 12:32:00,84.9,57.1,29.95,South,180,0.0,10.0,39,0.00,,,0.00,WUHU21623XXSP,2013-07-26 19:32:00,
2013-07-26 12:37:00,84.8,57.1,29.95,WSW,247,0.0,9.5,39,0.00,,,0.00,WUHU21623XXSP,2013-07-26 19:37:00,
2013-07-26 12:42:00,85.4,56.1,29.95,SSW,202,0.0,9.5,37,0.00,,,0.00,WUHU21623XXSP,2013-07-26 19:42:00,
2013-07-26 12:47:00,84.6,55.4,29.95,South,180,0.0,9.5,37,0.00,,,0.00,WUHU21623XXSP,2013-07-26 19:47:00,
2013-07-26 12:52:00,85.4,56.8,29.94,South,180,0.0,11.3,38,0.00,,,0.00,WUHU21623XXSP,2013-07-26 19:52:00,
2013-07-26 12:57:00,85.9,57.3,29.94,SSW,202,1.8,11.3,38,0.00,,,0.00,WUHU21623XXSP,2013-07-26 19:57:00,
2013-07-26 13:02:00,85.4,55.3,29.94,SSW,202,0.0,9.5,36,0.00,,,0.00,WUHU21623XXSP,2013-07-26 20:02:00,
2013-07-26 13:07:00,86.2,55.2,29.94,SSW,202,0.0,9.5,35,0.00,,,0.00,WUHU21623XXSP,2013-07-26 20:07:00,
2013-07-26 13:12:00,86.6,55.6,29.94,South,180,0.0,10.8,35,0.00,,,0.00,WUHU21623XXSP,2013-07-26 20:12:00,
2013-07-26 13:17:00,85.8,55.7,29.94,SSW,202,7.3,21.3,36,0.00,,,0.00,WUHU21623XXSP,2013-07-26 20:17:00,
2013-07-26 13:22:00,86.8,56.6,29.93,SW,225,0.0,21.3,36,0.00,,,0.00,WUHU21623XXSP,2013-07-26 20:22:00,
2013-07-26 13:27:00,87.8,57.5,29.93,South,180,2.3,11.3,36,0.00,,,0.00,WUHU21623XXSP,2013-07-26 20:27:00,
2013-07-26 13:32:00,87.8,55.8,29.93,South,180,0.0,11.3,34,0.00,,,0.00,WUHU21623XXSP,2013-07-26 20:32:00,
2013-07-26 13:37:00,88.6,57.3,29.93,NW,315,5.0,9.5,35,0.00,,,0.00,WUHU21623XXSP,2013-07-26 20:37:00,
2013-07-26 13:42:00,88.8,55.9,29.93,South,180,7.8,14.5,33,0.00,,,0.00,WUHU21623XXSP,2013-07-26 20:42:00,
2013-07-26 13:47:00,88.1,55.2,29.93,South,180,6.3,14.5,33,0.00,,,0.00,WUHU21623XXSP,2013-07-26 20:47:00,
2013-07-26 13:52:00,88.4,56.4,29.93,SW,225,0.0,16.8,34,0.00,,,0.00,WUHU21623XXSP,2013-07-26 20:52:00,
2013-07-26 13:57:00,89.5,56.5,29.92,SSW,202,4.0,16.8,33,0.00,,,0.00,WUHU21623XXSP,2013-07-26 20:57:00,
2013-07-26 14:02:00,90.1,57.0,29.92,SW,225,6.3,10.0,33,0.00,,,0.00,WUHU21623XXSP,2013-07-26 21:02:00,
2013-07-26 14:07:00,89.6,56.6,29.92,SSW,202,5.0,15.0,33,0.00,,,0.00,WUHU21623XXSP,2013-07-26 21:07:00,
2013-07-26 14:12:00,89.1,55.3,29.92,South,180,0.0,15.0,32,0.00,,,0.00,WUHU21623XXSP,2013-07-26 21:12:00,
2013-07-26 14:17:00,90.5,57.3,29.92,SW,225,0.0,12.3,33,0.00,,,0.00,WUHU21623XXSP,2013-07-26 21:17:00,
2013-07-26 14:22:00,90.7,56.6,29.91,WNW,292,0.0,11.3,32,0.00,,,0.00,WUHU21623XXSP,2013-07-26 21:22:00,
2013-07-26 14:27:00,91.3,56.4,29.91,SW,225,0.0,11.3,31,0.00,,,0.00,WUHU21623XXSP,2013-07-26 21:27:00,
2013-07-26 14:32:00,90.4,55.6,29.91,SE,135,0.0,6.3,31,0.00,,,0.00,WUHU21623XXSP,2013-07-26 21:32:00,
2013-07-26 14:37:00,91.3,56.3,29.91,SW,225,5.5,12.8,31,0.00,,,0.00,WUHU21623XXSP,2013-07-26 21:37:00,
2013-07-26 14:42:00,91.5,56.5,29.91,SSW,202,2.8,12.8,31,0.00,,,0.00,WUHU21623XXSP,2013-07-26 21:42:00,
2013-07-26 14:47:00,92.2,57.1,29.90,SW,225,4.0,12.8,31,0.00,,,0.00,WUHU21623XXSP,2013-07-26 21:47:00,
2013-07-26 14:52:00,92.8,56.8,29.90,South,180,0.0,8.5,30,0.00,,,0.00,WUHU21623XXSP,2013-07-26 21:52:00,
2013-07-26 14:57:00,93.2,57.0,29.90,North,0,0.0,8.5,30,0.00,,,0.00,WUHU21623XXSP,2013-07-26 21:57:00,
2013-07-26 15:02:00,93.6,57.4,29.90,SSW,202,3.3,5.5,30,0.00,,,0.00,WUHU21623XXSP,2013-07-26 22:02:00,
2013-07-26 15:07:00,94.1,57.9,29.90,West,270,0.0,5.5,30,0.00,,,0.00,WUHU21623XXSP,2013-07-26 22:07:00,
2013-07-26 15:12:00,93.3,56.2,29.90,SW,225,0.0,3.3,29,0.00,,,0.00,WUHU21623XXSP,2013-07-26 22:12:00,
2013-07-26 15:18:00,93.3,58.1,29.89,NW,315,0.0,9.5,31,0.00,,,0.00,WUHU21623XXSP,2013-07-26 22:18:00,
2013-07-26 15:23:00,93.6,56.4,29.89,NW,315,5.5,9.5,29,0.00,,,0.00,WUHU21623XXSP,2013-07-26 22:23:00,
2013-07-26 15:28:00,94.0,57.8,29.89,SSW,202,0.0,11.3,30,0.00,,,0.00,WUHU21623XXSP,2013-07-26 22:28:00,
2013-07-26 15:33:00,93.9,56.7,29.89,SSW,202,0.0,11.3,29,0.00,,,0.00,WUHU21623XXSP,2013-07-26 22:33:00,
2013-07-26 15:39:00,94.2,57.9,29.89,WNW,292,0.0,13.5,30,0.00,,,0.00,WUHU21623XXSP,2013-07-26 22:39:00,
2013-07-26 15:44:00,94.9,58.6,29.88,WNW,292,7.8,18.0,30,0.00,,,0.00,WUHU21623XXSP,2013-07-26 22:44:00,
2013-07-26 15:49:00,95.2,58.8,29.88,WNW,292,4.5,18.0,30,0.00,,,0.00,WUHU21623XXSP,2013-07-26 22:49:00,
2013-07-26 15:54:00,95.4,58.0,29.88,South,180,0.0,10.0,29,0.00,,,0.00,WUHU21623XXSP,2013-07-26 22:54:00,
2013-07-26 15:59:00,95.4,58.0,29.87,SW,225,1.8,6.3,29,0.00,,,0.00,WUHU21623XXSP,2013-07-26 22:59:00,
2013-07-26 16:04:00,95.3,57.0,29.88,NW,315,0.0,14.0,28,0.00,,,0.00,WUHU21623XXSP,2013-07-26 23:04:00,
2013-07-26 16:09:00,96.1,57.7,29.87,WNW,292,10.8,17.3,28,0.00,,,0.00,WUHU21623XXSP,2013-07-26 23:09:00,
2013-07-26 16:14:00,96.7,58.2,29.87,NW,315,0.0,17.3,28,0.00,,,0.00,WUHU21623XXSP,2013-07-26 23:14:00,
2013-07-26 16:19:00,96.5,58.0,29.88,South,180,0.0,11.3,28,0.00,,,0.00,WUHU21623XXSP,2013-07-26 23:19:00,
2013-07-26 16:24:00,96.4,57.9,29.87,NW,315,0.0,6.3,28,0.00,,,0.00,WUHU21623XXSP,2013-07-26 23:24:00,
2013-07-26 16:29:00,96.3,57.9,29.87,SSW,202,0.0,12.3,28,0.00,,,0.00,WUHU21623XXSP,2013-07-26 23:29:00,
2013-07-26 16:34:00,96.9,58.3,29.86,NW,315,0.0,12.3,28,0.00,,,0.00,WUHU21623XXSP,2013-07-26 23:34:00,
2013-07-26 16:39:00,97.5,59.8,29.87,SW,225,9.5,9.5,29,0.00,,,0.00,WUHU21623XXSP,2013-07-26 23:39:00,
2013-07-26 16:44:00,97.8,60.1,29.86,WSW,247,5.0,9.5,29,0.00,,,0.00,WUHU21623XXSP,2013-07-26 23:44:00,
2013-07-26 16:49:00,97.7,60.0,29.86,SSW,202,4.0,9.5,29,0.00,,,0.00,WUHU21623XXSP,2013-07-26 23:49:00,
2013-07-26 16:54:00,96.7,59.2,29.86,WSW,247,0.0,7.8,29,0.00,,,0.00,WUHU21623XXSP,2013-07-26 23:54:00,
2013-07-26 16:59:00,97.0,58.4,29.86,South,180,0.0,7.8,28,0.00,,,0.00,WUHU21623XXSP,2013-07-26 23:59:00,
2013-07-26 17:04:00,96.8,58.3,29.86,SSW,202,0.0,5.5,28,0.00,,,0.00,WUHU21623XXSP,2013-07-27 00:04:00,
2013-07-26 17:09:00,96.8,58.3,29.86,SSW,202,3.3,4.5,28,0.00,,,0.00,WUHU21623XXSP,2013-07-27 00:09:00,
2013-07-26 17:14:00,96.6,58.1,29.86,South,180,4.5,7.3,28,0.00,,,0.00,WUHU21623XXSP,2013-07-27 00:14:00,
2013-07-26 17:19:00,96.6,58.1,29.86,SW,225,1.8,14.0,28,0.00,,,0.00,WUHU21623XXSP,2013-07-27 00:19:00,
2013-07-26 17:24:00,96.7,58.1,29.86,South,180,0.0,14.0,28,0.00,,,0.00,WUHU21623XXSP,2013-07-27 00:24:00,
2013-07-26 17:29:00,96.7,58.2,29.86,South,180,0.0,7.8,28,0.00,,,0.00,WUHU21623XXSP,2013-07-27 00:29:00,
2013-07-26 17:34:00,96.3,57.9,29.86,SW,225,0.0,6.8,28,0.00,,,0.00,WUHU21623XXSP,2013-07-27 00:34:00,
2013-07-26 17:39:00,96.2,57.7,29.86,SW,225,0.0,6.8,28,0.00,,,0.00,WUHU21623XXSP,2013-07-27 00:39:00,
2013-07-26 17:44:00,96.2,57.8,29.86,SW,225,3.3,9.0,28,0.00,,,0.00,WUHU21623XXSP,2013-07-27 00:44:00,
2013-07-26 17:49:00,95.6,57.2,29.85,SSW,202,0.0,16.3,28,0.00,,,0.00,WUHU21623XXSP,2013-07-27 00:49:00,
2013-07-26 17:54:00,95.3,58.0,29.86,SSW,202,4.5,16.3,29,0.00,,,0.00,WUHU21623XXSP,2013-07-27 00:54:00,
2013-07-26 17:59:00,94.8,57.5,29.85,South,180,0.0,9.5,29,0.00,,,0.00,WUHU21623XXSP,2013-07-27 00:59:00,
2013-07-26 18:04:00,94.8,57.5,29.85,SSW,202,0.0,9.5,29,0.00,,,0.00,WUHU21623XXSP,2013-07-27 01:04:00,
2013-07-26 18:09:00,94.7,58.3,29.85,SE,135,4.0,13.5,30,0.00,,,0.00,WUHU21623XXSP,2013-07-27 01:09:00,
2013-07-26 18:14:00,94.4,58.1,29.85,South,180,3.3,24.5,30,0.00,,,0.00,WUHU21623XXSP,2013-07-27 01:14:00,
2013-07-26 18:19:00,93.8,57.6,29.85,SW,225,5.0,24.5,30,0.00,,,0.00,WUHU21623XXSP,2013-07-27 01:19:00,
2013-07-26 18:24:00,93.6,57.4,29.86,WSW,247,0.0,18.0,30,0.00,,,0.00,WUHU21623XXSP,2013-07-27 01:24:00,
2013-07-26 18:29:00,93.2,58.0,29.85,SSW,202,2.3,15.8,31,0.00,,,0.00,WUHU21623XXSP,2013-07-27 01:29:00,
2013-07-26 18:34:00,93.1,57.9,29.85,WSW,247,3.3,15.8,31,0.00,,,0.00,WUHU21623XXSP,2013-07-27 01:34:00,
2013-07-26 18:39:00,92.6,57.5,29.85,South,180,0.0,10.8,31,0.00,,,0.00,WUHU21623XXSP,2013-07-27 01:39:00,
2013-07-26 18:44:00,92.3,58.1,29.85,South,180,5.0,9.5,32,0.00,,,0.00,WUHU21623XXSP,2013-07-27 01:44:00,
2013-07-26 18:49:00,92.2,58.0,29.85,WNW,292,0.0,9.5,32,0.00,,,0.00,WUHU21623XXSP,2013-07-27 01:49:00,
2013-07-26 18:54:00,92.0,57.8,29.85,South,180,0.0,5.0,32,0.00,,,0.00,WUHU21623XXSP,2013-07-27 01:54:00,
2013-07-26 18:59:00,91.6,58.3,29.85,SW,225,0.0,11.8,33,0.00,,,0.00,WUHU21623XXSP,2013-07-27 01:59:00,
2013-07-26 19:04:00,91.4,58.2,29.86,SSE,157,0.0,11.8,33,0.00,,,0.00,WUHU21623XXSP,2013-07-27 02:04:00,
2013-07-26 19:09:00,91.4,58.2,29.85,South,180,0.0,4.0,33,0.00,,,0.00,WUHU21623XXSP,2013-07-27 02:09:00,
2013-07-26 19:14:00,91.1,58.7,29.85,South,180,5.5,19.0,34,0.00,,,0.00,WUHU21623XXSP,2013-07-27 02:14:00,
2013-07-26 19:19:00,90.5,58.2,29.86,SSW,202,0.0,19.0,34,0.00,,,0.00,WUHU21623XXSP,2013-07-27 02:19:00,
2013-07-26 19:24:00,90.2,57.9,29.85,SSW,202,0.0,7.3,34,0.00,,,0.00,WUHU21623XXSP,2013-07-27 02:24:00,
2013-07-26 19:29:00,89.6,58.2,29.86,South,180,0.0,7.3,35,0.00,,,0.00,WUHU21623XXSP,2013-07-27 02:29:00,
2013-07-26 19:34:00,88.9,57.6,29.86,South,180,0.0,9.5,35,0.00,,,0.00,WUHU21623XXSP,2013-07-27 02:34:00,
2013-07-26 19:39:00,88.6,58.1,29.85,South,180,0.0,9.5,36,0.00,,,0.00,WUHU21623XXSP,2013-07-27 02:39:00,
2013-07-26 19:44:00,88.4,58.0,29.86,South,180,5.5,9.0,36,0.00,,,0.00,WUHU21623XXSP,2013-07-27 02:44:00,
2013-07-26 19:49:00,87.5,57.9,29.86,South,180,0.0,9.0,37,0.00,,,0.00,WUHU21623XXSP,2013-07-27 02:49:00,
2013-07-26 19:54:00,86.9,57.4,29.86,South,180,0.0,3.3,37,0.00,,,0.00,WUHU21623XXSP,2013-07-27 02:54:00,
2013-07-26 19:59:00,86.2,56.8,29.86,SSE,157,0.0,4.5,37,0.00,,,0.00,WUHU21623XXSP,2013-07-27 02:59:00,
2013-07-26 20:04:00,85.7,57.1,29.86,SSE,157,0.0,4.5,38,0.00,,,0.00,WUHU21623XXSP,2013-07-27 03:04:00,
2013-07-26 20:09:00,85.1,56.6,29.87,SSW,202,0.0,4.5,38,0.00,,,0.00,WUHU21623XXSP,2013-07-27 03:09:00,
2013-07-26 20:14:00,84.8,56.3,29.86,SSW,202,0.0,4.5,38,0.00,,,0.00,WUHU21623XXSP,2013-07-27 03:14:00,
2013-07-26 20:19:00,84.2,57.2,29.87,South,180,0.0,6.8,40,0.00,,,0.00,WUHU21623XXSP,2013-07-27 03:19:00,
2013-07-26 20:24:00,83.9,56.9,29.87,WSW,247,0.0,7.8,40,0.00,,,0.00,WUHU21623XXSP,2013-07-27 03:24:00,
2013-07-26 20:29:00,83.3,56.4,29.86,SW,225,0.0,7.8,40,0.00,,,0.00,WUHU21623XXSP,2013-07-27 03:29:00,
2013-07-26 20:34:00,82.8,56.7,29.87,South,180,0.0,4.5,41,0.00,,,0.00,WUHU21623XXSP,2013-07-27 03:34:00,
2013-07-26 20:39:00,82.3,56.2,29.87,South,180,0.0,3.3,41,0.00,,,0.00,WUHU21623XXSP,2013-07-27 03:39:00,
2013-07-26 20:44:00,81.7,56.3,29.87,South,180,0.0,3.3,42,0.00,,,0.00,WUHU21623XXSP,2013-07-27 03:44:00,
2013-07-26 20:50:00,81.2,55.9,29.88,South,180,0.0,3.3,42,0.00,,,0.00,WUHU21623XXSP,2013-07-27 03:50:00,
2013-07-26 20:55:00,80.8,54.9,29.88,South,180,0.0,2.8,41,0.00,,,0.00,WUHU21623XXSP,2013-07-27 03:55:00,
2013-07-26 21:00:00,80.3,54.4,29.89,South,180,0.0,9.5,41,0.00,,,0.00,WUHU21623XXSP,2013-07-27 04:00:00,
2013-07-26 21:01:00,80.3,55.1,29.88,SSE,157,2.3,9.5,42,0.00,,,0.00,WUHU21623XXSP,2013-07-27 04:01:00,
2013-07-26 21:02:00,79.9,54.7,29.88,SSW,202,0.0,9.5,42,0.00,,,0.00,WUHU21623XXSP,2013-07-27 04:02:00,
2013-07-26 21:07:00,79.2,54.1,29.89,SSW,202,0.0,7.3,42,0.00,,,0.00,WUHU21623XXSP,2013-07-27 04:07:00,
2013-07-26 21:12:00,79.0,54.6,29.89,North,0,0.0,5.5,43,0.00,,,0.00,WUHU21623XXSP,2013-07-27 04:12:00,
2013-07-26 21:17:00,78.5,53.5,29.89,WSW,247,5.0,8.5,42,0.00,,,0.00,WUHU21623XXSP,2013-07-27 04:17:00,
2013-07-26 21:22:00,78.1,53.8,29.89,SSW,202,0.0,8.5,43,0.00,,,0.00,WUHU21623XXSP,2013-07-27 04:22:00,
2013-07-26 21:27:00,77.8,53.5,29.89,South,180,0.0,3.3,43,0.00,,,0.00,WUHU21623XXSP,2013-07-27 04:27:00,
2013-07-26 21:32:00,77.4,53.1,29.90,South,180,0.0,3.3,43,0.00,,,0.00,WUHU21623XXSP,2013-07-27 04:32:00,
2013-07-26 21:37:00,77.2,53.6,29.90,South,180,0.0,3.3,44,0.00,,,0.00,WUHU21623XXSP,2013-07-27 04:37:00,
2013-07-26 21:42:00,77.0,53.4,29.90,South,180,0.0,5.0,44,0.00,,,0.00,WUHU21623XXSP,2013-07-27 04:42:00,
2013-07-26 21:47:00,76.5,53.6,29.90,South,180,0.0,5.0,45,0.00,,,0.00,WUHU21623XXSP,2013-07-27 04:47:00,
2013-07-26 21:52:00,76.1,53.2,29.91,South,180,0.0,0.0,45,0.00,,,0.00,WUHU21623XXSP,2013-07-27 04:52:00,
2013-07-26 21:57:00,76.0,53.1,29.91,South,180,0.0,0.0,45,0.00,,,0.00,WUHU21623XXSP,2013-07-27 04:57:00,
2013-07-26 22:03:00,76.0,53.1,29.91,South,180,0.0,0.0,45,0.00,,,0.00,WUHU21623XXSP,2013-07-27 05:03:00,
2013-07-26 22:08:00,75.4,52.6,29.91,South,180,0.0,2.8,45,0.00,,,0.00,WUHU21623XXSP,2013-07-27 05:08:00,
2013-07-26 22:13:00,75.2,53.0,29.91,South,180,0.0,2.8,46,0.00,,,0.00,WUHU21623XXSP,2013-07-27 05:13:00,
2013-07-26 22:18:00,74.9,52.7,29.91,South,180,0.0,0.0,46,0.00,,,0.00,WUHU21623XXSP,2013-07-27 05:18:00,
2013-07-26 22:24:00,74.9,52.7,29.91,South,180,0.0,0.0,46,0.00,,,0.00,WUHU21623XXSP,2013-07-27 05:24:00,
2013-07-26 22:29:00,75.1,52.9,29.91,South,180,0.0,0.0,46,0.00,,,0.00,WUHU21623XXSP,2013-07-27 05:29:00,
2013-07-26 22:34:00,74.9,52.7,29.91,South,180,0.0,0.0,46,0.00,,,0.00,WUHU21623XXSP,2013-07-27 05:34:00,
2013-07-26 22:39:00,74.7,51.9,29.91,SE,135,0.0,0.0,45,0.00,,,0.00,WUHU21623XXSP,2013-07-27 05:39:00,
2013-07-26 22:44:00,74.5,52.4,29.91,South,180,0.0,0.0,46,0.00,,,0.00,WUHU21623XXSP,2013-07-27 05:44:00,
2013-07-26 22:49:00,74.3,51.6,29.91,South,180,0.0,0.0,45,0.00,,,0.00,WUHU21623XXSP,2013-07-27 05:49:00,
2013-07-26 22:54:00,74.0,51.3,29.91,South,180,0.0,0.0,45,0.00,,,0.00,WUHU21623XXSP,2013-07-27 05:54:00,
2013-07-26 22:59:00,73.8,51.7,29.91,South,180,0.0,0.0,46,0.00,,,0.00,WUHU21623XXSP,2013-07-27 05:59:00,
2013-07-26 23:04:00,73.6,51.5,29.91,South,180,0.0,0.0,46,0.00,,,0.00,WUHU21623XXSP,2013-07-27 06:04:00,
2013-07-26 23:09:00,73.4,51.4,29.91,South,180,0.0,0.0,46,0.00,,,0.00,WUHU21623XXSP,2013-07-27 06:09:00,
2013-07-26 23:14:00,73.4,51.4,29.91,SSW,202,0.0,0.0,46,0.00,,,0.00,WUHU21623XXSP,2013-07-27 06:14:00,
2013-07-26 23:19:00,73.4,51.4,29.91,South,180,0.0,5.5,46,0.00,,,0.00,WUHU21623XXSP,2013-07-27 06:19:00,
2013-07-26 23:24:00,72.9,51.5,29.91,South,180,0.0,5.5,47,0.00,,,0.00,WUHU21623XXSP,2013-07-27 06:24:00,
2013-07-26 23:29:00,72.7,51.3,29.90,South,180,0.0,0.0,47,0.00,,,0.00,WUHU21623XXSP,2013-07-27 06:29:00,
2013-07-26 23:34:00,72.7,51.3,29.91,SSW,202,0.0,0.0,47,0.00,,,0.00,WUHU21623XXSP,2013-07-27 06:34:00,
2013-07-26 23:39:00,72.4,51.0,29.90,South,180,0.0,0.0,47,0.00,,,0.00,WUHU21623XXSP,2013-07-27 06:39:00,
2013-07-26 23:44:00,72.2,51.5,29.90,South,180,0.0,0.0,48,0.00,,,0.00,WUHU21623XXSP,2013-07-27 06:44:00,
2013-07-26 23:49:00,71.8,51.1,29.90,South,180,0.0,0.0,48,0.00,,,0.00,WUHU21623XXSP,2013-07-27 06:49:00,
2013-07-26 23:54:00,71.5,51.4,29.90,South,180,0.0,0.0,49,0.00,,,0.00,WUHU21623XXSP,2013-07-27 06:54:00,
2013-07-26 23:59:00,71.1,51.0,29.90,South,180,0.0,0.0,49,0.00,,,0.00,WUHU21623XXSP,2013-07-27 06:59:00,